STARLINK-3860 (52477 NORAD) Tracking and Keplerian Element Data

This shows tracking and keplerian element data for the satellite.

Feedback or suggestion? Click here.




ElementValue
Catalog52477
NameSTARLINK-3860
Epoch Orbit1069
Epoch Day193.25001157
Epoch Year2022
RAAN295.4926
Inclination53.2173
Eccentricity0.0003566
Argument of Perigee5.5722
Mean Anonmoly98.2589
Mean Motion15.73076412
Decay Rate-0.01044724
L11 52477U 22049AC 22193.25001157 -.01044724 00000+0 -82989-2 0 9991
L22 52477 53.2173 295.4926 0003566 5.5722 98.2589 15.73076412 10699

Live tracking and technical data element details for STARLINK-3860 (NORAD 52477). STARLINK-3860 can be tracked NOW for your location showing map with azimuth and elevation plus other details from your city location.

Track the satellite on the map from your city or location and see movement details for azimuth, elevation, latitude, longitude, range, height, and movement on the map or in text.







IsCatalogInMostPopularTable: catalog: 52477, numindb: 5
Update: records affected: 1



GetName: 52477 STARLINK-3860

Hit Count: updated at: Sun, 14 Aug 2022 00:05:13 GMT